ECMWFFLT1_500_spd_075.txt.gz
Wind_Speed
91 92 93 94 96 99 100 99 94 90 87 85 82 78 76 74 73 71 69 68 67 66 65 64 64 64 65 65 66 67 67 67 67 67 65 65 67 67 68 68 67 65 63 63 61 59 57 56 55 53 51 50 51 53 54 56 57 58 58 58 58 57 60
93 94 96 97 99 100 98 93 87 82 80 79 77 74 71 70 69 67 66 65 64 64 63 62 62 62 62 63 63 64 65 65 65 64 62 62 63 65 65 66 66 65 64 62 60 57 56 55 54 52 51 49 50 51 53 54 56 57 57 57 57 56 57
96 97 99 100 100 98 93 86 79 76 74 73 73 70 67 66 65 64 63 63 62 61 61 60 60 60 61 61 61 62 63 63 63 62 60 58 59 61 62 63 63 63 63 61 58 56 55 54 53 52 50 49 49 50 51 53 54 55 56 55 55 54 55
98 100 101 100 98 93 86 78 73 71 70 69 69 67 64 63 62 61 61 60 60 59 59 58 58 58 59 60 59 60 61 62 62 60 58 55 54 57 59 60 61 61 61 59 56 54 53 53 52 52 50 49 49 49 50 51 52 53 54 53 53 52 53
99 100 100 98 93 87 80 73 69 67 66 66 67 64 61 60 60 59 59 58 58 57 57 57 57 57 58 59 58 58 60 61 60 59 56 53 50 52 55 57 58 58 58 57 54 52 52 52 51 51 50 49 49 48 49 50 51 51 51 52 51 50 52
100 99 97 93 87 81 76 70 66 65 63 63 64 62 58 58 58 57 57 56 55 55 55 55 56 56 57 58 57 57 58 60 60 57 55 52 48 48 51 54 55 56 56 54 52 50 50 50 51 51 49 48 48 47 48 49 49 49 49 50 49 49 50
99 97 92 86 80 76 73 69 65 62 60 60 62 60 56 56 56 55 55 54 53 53 53 54 55 55 56 57 57 56 57 59 60 57 53 51 48 46 48 51 53 53 53 52 50 49 49 50 50 49 48 48 48 46 47 47 47 48 48 48 47 48 49
97 93 87 81 76 73 72 68 63 60 58 58 59 58 55 54 54 53 53 52 52 52 52 52 53 53 54 55 54 54 55 57 58 56 53 52 49 46 47 50 51 51 51 50 48 48 49 49 49 48 47 47 47 46 46 46 46 46 46 45 45 46 47
94 89 83 78 74 72 70 66 62 59 57 56 56 56 54 52 51 51 51 50 50 50 50 50 49 49 51 51 50 50 52 55 55 53 52 52 49 46 47 49 50 50 49 48 47 47 49 49 48 48 47 47 46 46 45 45 45 45 44 43 43 44 45
90 85 80 77 74 71 68 64 60 57 55 54 54 54 53 51 49 49 49 48 48 48 48 47 46 47 48 46 46 47 50 53 54 51 51 52 49 46 46 48 49 49 47 47 46 47 49 48 47 47 47 46 46 45 44 45 44 44 43 42 42 42 42
87 81 78 76 72 69 66 62 57 55 53 53 53 53 53 50 47 47 47 46 45 45 45 45 44 45 44 42 43 45 47 51 52 51 51 50 48 46 46 46 47 47 46 46 46 47 48 47 47 47 46 45 45 44 44 44 43 42 41 40 40 40 40
83 78 75 73 69 66 63 59 55 53 51 51 51 51 51 50 46 44 45 44 43 43 43 42 42 41 40 39 42 44 46 49 50 50 49 47 47 47 46 46 46 46 46 46 47 47 47 47 46 46 46 44 44 44 44 43 42 41 40 39 39 39 39
80 75 71 69 65 62 59 55 53 51 49 49 50 49 49 49 45 42 42 42 42 42 41 40 40 38 38 39 41 44 46 47 48 48 46 45 46 47 46 46 46 46 46 46 47 47 46 46 46 45 45 44 43 43 43 43 41 39 39 38 37 37 37
75 71 67 64 60 58 54 50 49 49 48 47 48 47 47 47 43 40 40 41 41 40 39 39 38 37 38 39 40 44 47 47 46 47 45 45 47 47 46 46 46 46 46 46 46 46 46 46 46 45 44 43 42 43 43 42 41 39 38 37 36 35 35
71 66 62 59 56 53 49 46 46 47 47 46 45 45 45 44 41 39 38 38 39 38 38 38 38 36 37 38 39 42 47 48 47 47 47 47 48 48 46 45 46 46 46 46 46 46 46 46 45 45 43 42 41 42 43 41 40 38 37 36 35 34 34
65 61 58 55 52 49 44 42 43 44 45 44 42 42 42 42 39 37 36 36 37 37 37 38 38 37 37 38 39 41 45 48 48 47 46 47 47 47 46 45 46 46 46 46 46 45 45 45 45 44 42 41 42 42 42 41 39 38 36 36 35 33 33
60 56 54 50 48 44 40 39 40 42 42 41 40 40 40 39 38 36 34 34 36 37 37 38 38 38 39 39 38 39 42 45 45 45 45 46 47 47 46 45 45 46 46 45 45 45 45 45 45 43 41 41 42 42 41 41 39 37 36 35 34 33 32
54 51 49 46 44 40 37 36 37 38 38 38 38 38 38 37 36 33 32 34 36 36 38 39 39 39 41 41 38 37 39 41 43 43 43 45 46 46 45 45 44 45 45 44 44 44 44 44 43 42 41 41 41 41 41 41 40 37 35 35 34 33 32
49 46 44 42 39 36 35 34 34 35 36 35 35 36 35 35 33 31 32 34 36 36 38 40 39 38 41 43 41 38 38 39 41 42 42 44 45 45 45 45 45 45 44 43 43 43 43 43 42 41 41 41 41 41 40 40 39 37 35 35 34 33 32
45 41 39 37 35 33 33 31 31 33 33 33 33 33 33 32 31 31 33 35 35 35 38 39 37 36 39 43 43 41 39 38 40 41 41 42 42 43 45 45 45 44 43 42 42 42 42 42 42 41 41 41 40 40 40 40 39 38 36 36 34 33 32
41 37 34 32 31 30 30 29 29 30 31 30 31 31 30 30 30 30 32 32 33 35 38 37 36 36 38 42 44 43 41 39 39 41 41 40 41 44 45 45 44 43 42 42 42 42 42 41 41 40 40 40 40 41 41 40 40 39 37 36 35 34 32
37 34 30 29 28 27 27 27 27 28 28 28 28 29 28 26 25 25 26 28 31 34 35 36 36 37 38 40 42 43 42 40 39 40 40 40 42 44 44 43 43 42 42 41 41 41 41 40 40 40 40 40 40 41 40 40 40 40 38 36 35 34 32
33 30 27 26 26 25 25 25 25 25 26 26 25 26 25 22 20 20 23 27 30 32 33 35 36 37 38 39 40 41 42 41 40 39 40 41 42 43 42 42 42 41 40 40 40 40 39 39 40 41 41 40 40 41 40 41 41 40 38 37 35 33 31
29 26 24 23 23 23 23 23 23 23 23 23 23 23 23 22 20 21 23 26 28 31 33 35 35 36 38 38 38 40 41 41 40 39 40 42 42 41 41 42 41 40 39 40 39 39 39 39 40 41 41 41 41 41 41 41 41 39 37 36 35 33 31
26 23 21 21 21 21 21 21 21 21 22 22 22 22 24 24 23 24 25 26 28 31 33 34 34 34 36 37 37 38 39 39 39 39 39 40 40 40 40 40 39 39 39 39 39 39 39 40 40 41 41 41 41 41 40 40 39 38 37 36 35 33 32
22 20 19 19 19 19 19 20 20 20 20 20 21 23 25 25 24 25 26 27 29 31 33 33 33 33 34 36 36 36 36 37 38 38 38 39 39 39 39 39 39 39 39 38 38 38 39 40 40 41 41 40 40 39 39 39 39 39 38 37 36 35 35
19 18 18 18 18 18 18 19 19 19 20 20 22 24 24 24 23 25 26 27 29 32 32 32 31 32 33 34 35 35 35 36 36 36 37 38 38 38 38 39 39 38 38 38 38 38 39 39 40 40 40 39 39 39 39 39 40 39 39 38 37 37 36
17 16 16 16 17 17 18 18 18 18 19 21 22 23 22 21 21 22 25 27 29 30 29 28 28 31 33 33 33 33 33 34 34 35 36 37 37 37 38 38 38 37 37 38 38 38 39 39 40 40 40 39 39 39 39 39 39 39 39 38 38 38 38
16 15 15 16 16 17 17 17 18 18 19 21 22 21 20 18 17 20 24 27 28 28 26 25 26 29 31 32 32 32 32 32 33 34 35 36 36 37 37 37 36 36 36 36 36 37 38 39 39 39 39 39 39 39 39 38 39 39 39 38 38 39 39
15 14 15 15 16 16 17 17 17 18 19 21 21 20 18 16 14 18 23 26 26 26 26 26 27 28 30 31 31 31 31 32 33 34 34 35 35 36 36 35 35 35 35 35 36 37 38 38 39 39 39 39 38 38 38 37 38 38 38 39 39 40 41
13 14 14 15 15 16 17 17 17 18 20 21 20 19 18 15 13 15 19 23 24 25 26 27 28 29 29 30 30 30 32 33 34 34 34 34 34 34 34 34 34 34 35 36 37 38 38 39 39 39 38 37 37 36 36 36 37 37 38 39 40 41 41
12 13 14 15 15 16 17 17 18 19 20 20 19 18 17 16 13 13 15 19 22 24 25 27 28 28 29 29 30 31 33 34 34 34 34 33 33 33 33 33 34 34 36 37 38 38 39 39 39 38 37 36 36 35 35 35 36 36 38 39 40 41 42
12 13 14 15 16 17 17 17 19 20 20 19 18 17 17 16 14 13 14 18 22 24 26 27 28 28 29 30 30 31 32 33 33 33 33 33 33 33 33 34 34 35 37 38 38 38 38 38 38 37 36 35 35 34 34 34 34 35 37 38 39 41 42
12 13 14 14 15 17 18 19 20 20 19 18 17 17 16 16 16 15 16 19 23 25 27 28 29 29 29 29 30 30 31 31 32 32 33 33 33 33 34 35 36 37 38 39 39 38 38 38 38 36 35 34 34 33 33 33 34 35 36 37 38 40 41
12 13 13 14 15 16 17 19 20 20 19 18 17 17 17 18 17 17 19 21 24 26 27 28 29 29 28 28 28 29 29 30 31 31 31 31 32 34 36 38 38 39 39 39 38 38 38 38 37 35 34 33 33 32 32 33 33 34 34 35 36 38 40
12 13 13 14 15 16 17 19 20 20 19 18 18 18 18 19 19 19 21 23 25 26 27 28 28 27 27 26 27 28 28 29 30 30 30 31 33 35 37 38 38 38 38 38 38 38 37 36 35 34 34 33 32 32 32 32 33 33 33 33 34 35 38

ECMWFFLT1_500_spd_078.txt.gz
Wind_Speed
81 82 82 83 84 85 86 87 88 89 90 90 90 90 90 90 90 90 90 91 92 94 96 98 98 95 90 87 83 80 78 76 76 75 75 75 75 75 76 76 77 78 76 75 75 78 80 82 82 81 80 80 79 78 78 77 76 75 73 72 72 73 74
82 83 84 85 86 87 88 89 90 91 92 92 91 91 91 91 91 91 91 91 92 93 94 94 94 89 81 78 76 74 72 71 71 71 71 71 70 70 70 71 72 72 72 71 72 73 76 78 80 80 79 79 79 78 77 76 75 73 72 70 70 70 71
84 84 85 86 88 89 91 92 93 94 94 94 93 93 92 92 92 92 92 92 92 91 89 89 88 81 74 72 71 69 68 68 68 69 68 68 67 67 67 67 68 68 68 68 69 70 72 73 76 77 78 78 79 78 77 75 74 72 70 69 68 67 68
85 86 87 88 90 92 93 95 95 96 95 96 96 96 95 94 94 94 93 92 90 86 82 82 81 74 69 68 68 66 66 66 66 66 66 65 65 65 65 65 65 65 65 65 66 68 69 69 72 74 76 76 77 77 76 74 72 70 69 67 66 65 65
87 88 90 92 93 95 96 97 98 98 97 98 98 99 98 97 96 95 93 90 85 79 76 76 75 70 65 66 65 64 64 64 64 65 64 63 63 63 63 64 63 63 64 64 65 65 66 66 67 70 73 74 75 76 74 72 70 69 67 65 64 64 64
89 91 93 95 97 98 99 99 100 100 100 100 100 101 100 99 97 94 91 85 78 73 71 72 72 66 62 64 63 62 62 62 62 63 62 61 61 62 63 62 61 61 62 63 63 64 65 64 63 65 68 71 73 74 72 70 69 67 64 63 63 63 64
92 94 96 98 99 100 101 101 102 102 102 102 102 102 101 99 96 91 85 78 72 69 69 69 69 63 60 61 61 60 60 60 60 61 60 60 60 61 62 61 60 60 61 61 62 63 63 62 59 60 64 67 70 71 69 68 66 64 62 61 62 62 63
96 97 99 100 101 102 103 104 104 104 105 104 103 102 100 96 91 85 79 72 67 66 66 66 66 61 58 59 59 58 58 58 58 58 58 58 59 60 61 60 59 58 59 60 61 62 62 60 56 57 60 63 65 66 66 66 64 62 61 60 60 61 61
100 101 101 102 103 104 105 105 106 106 106 105 102 99 95 90 84 78 73 68 64 63 63 64 62 58 56 58 58 57 57 56 56 56 56 56 57 59 60 59 58 57 57 58 60 61 61 58 54 54 57 59 61 63 64 63 61 60 60 59 59 59 59
102 103 104 105 105 105 106 107 107 106 104 101 97 92 86 81 76 72 68 64 61 60 60 60 58 55 54 56 57 56 55 54 54 54 54 54 56 57 58 58 58 57 56 58 60 61 59 55 52 52 55 56 59 61 62 60 59 58 58 58 58 57 56
104 105 106 107 107 107 107 107 105 102 97 92 87 82 78 73 68 66 63 60 57 57 57 56 55 53 53 55 55 54 53 52 52 52 52 53 55 56 57 58 57 57 56 57 60 61 57 53 50 51 54 55 57 59 59 58 57 57 57 57 56 55 55
106 107 108 109 109 108 106 103 98 91 86 81 77 73 70 66 62 60 58 56 54 53 53 53 52 52 52 53 52 52 51 50 50 51 51 52 53 54 56 57 56 55 56 57 60 59 55 51 50 51 53 55 57 57 57 56 55 56 56 55 54 53 53
107 108 109 108 107 104 99 93 86 81 76 72 68 65 62 60 58 56 53 52 50 49 49 50 50 50 50 50 50 50 49 49 49 49 50 51 52 53 54 54 53 53 55 57 59 58 54 51 51 51 53 56 57 56 54 54 54 55 55 53 52 52 51
107 107 105 102 99 94 88 82 76 71 67 64 60 58 57 55 54 51 48 46 46 46 46 47 47 48 48 48 48 48 47 47 47 48 49 49 50 50 51 50 50 51 54 57 58 56 53 51 51 51 54 56 56 54 53 53 54 54 53 52 51 50 49
104 101 96 92 88 84 79 72 66 62 59 57 54 52 51 50 49 47 44 42 43 43 43 44 45 46 46 46 46 46 46 46 46 47 47 47 47 47 47 47 47 49 53 56 56 54 52 50 51 52 55 56 55 53 53 53 53 52 51 51 50 48 47
96 91 87 83 79 75 69 62 57 54 53 51 49 47 46 45 44 43 40 39 40 40 40 42 44 44 44 44 44 44 44 45 45 45 45 45 45 45 44 45 46 48 52 55 56 55 53 51 52 53 55 55 54 52 53 53 51 50 50 49 48 46 46
86 82 79 74 69 64 59 54 50 49 48 46 44 42 41 41 40 39 38 37 38 38 38 40 42 42 42 42 42 42 43 44 43 43 42 42 43 43 43 45 47 49 51 55 57 57 54 53 53 54 54 54 53 52 52 51 49 49 49 47 47 46 46
78 73 69 65 61 57 53 48 45 44 43 41 39 37 37 37 37 36 35 35 35 35 37 38 40 41 41 41 41 42 43 43 42 41 40 40 41 43 43 45 49 50 51 54 57 56 53 52 52 53 53 53 52 51 50 49 48 48 47 46 46 46 46
70 64 60 58 55 52 48 43 39 38 38 36 34 33 33 33 33 33 32 32 33 34 35 36 37 39 39 40 40 41 42 42 41 40 39 39 40 42 43 46 50 51 52 54 55 53 52 51 51 52 52 52 51 50 48 47 48 47 46 46 47 46 45
62 58 55 53 50 46 43 38 34 32 32 31 29 29 30 30 30 30 30 30 31 32 33 34 35 37 38 39 40 41 42 42 40 39 39 39 40 42 44 47 51 52 51 51 52 50 50 50 50 50 51 51 50 48 46 46 47 46 46 47 46 46 44
58 54 50 47 43 40 36 32 28 27 27 26 26 26 27 27 27 28 28 28 29 30 31 32 33 35 38 40 41 41 41 41 41 40 40 40 41 44 48 49 50 50 49 49 50 49 48 49 50 50 50 50 48 46 45 45 46 46 46 46 46 45 44
53 49 44 40 37 34 30 26 23 22 23 23 23 24 26 25 25 25 26 26 27 28 29 31 33 35 39 41 41 41 42 42 41 41 41 40 41 46 49 49 48 48 48 48 50 49 48 48 49 49 50 49 47 45 45 45 46 46 46 46 46 44 43
48 42 37 33 31 28 24 21 19 19 20 21 21 23 24 23 23 24 24 25 26 27 29 31 34 37 39 40 41 41 42 43 42 42 41 40 41 45 49 49 48 48 47 48 49 48 47 47 48 49 49 47 46 45 45 46 46 46 47 47 45 44 43
41 36 31 28 26 23 19 17 16 17 18 19 20 21 21 21 22 22 23 23 24 27 30 32 34 36 38 39 40 42 43 43 42 42 42 41 41 43 47 48 47 46 47 47 48 47 46 46 47 47 47 46 46 46 46 46 46 46 47 46 44 44 43
34 29 26 23 21 18 15 14 14 15 16 18 19 20 21 21 22 22 22 23 25 28 30 31 32 34 36 38 40 41 41 41 40 41 44 44 41 41 44 45 45 45 46 46 46 46 45 45 45 46 47 47 47 46 46 45 45 45 45 44 43 43 42
29 24 21 18 16 14 13 12 13 14 15 17 19 19 21 22 22 22 24 26 27 27 26 27 28 30 33 36 37 38 37 37 38 41 45 45 42 40 42 43 42 43 44 44 44 45 44 44 45 46 47 47 45 45 44 44 44 45 45 44 44 43 42
25 20 16 14 12 11 11 11 12 14 15 17 18 19 20 21 21 23 26 27 26 25 24 25 26 28 30 32 34 34 34 36 38 41 44 45 43 40 40 40 40 40 41 42 43 44 44 44 45 46 46 45 44 43 43 43 43 44 44 44 43 43 42
21 17 12 11 10 9 10 11 12 14 15 16 17 17 18 19 21 23 26 27 26 25 26 27 28 29 30 31 31 32 34 35 37 40 43 45 43 40 39 39 39 39 39 41 42 43 44 44 44 44 44 43 43 42 42 42 42 43 44 43 42 42 41
17 14 10 9 9 9 10 12 13 14 14 15 15 16 16 17 19 22 24 25 25 26 27 29 30 30 30 30 31 32 34 35 36 39 42 44 43 40 39 38 39 38 39 40 42 43 43 43 43 43 43 42 41 41 41 41 42 43 44 43 42 42 41
13 12 9 8 9 10 11 12 12 13 13 13 14 14 14 16 18 20 22 23 25 26 27 28 29 29 29 30 31 32 33 34 36 38 42 44 43 40 38 38 38 39 39 40 41 42 42 42 42 41 41 41 41 41 41 41 43 44 44 43 42 42 42
10 10 8 8 9 10 11 12 11 11 12 12 12 13 14 16 18 19 21 23 24 25 26 27 28 30 30 31 31 32 32 34 36 38 40 42 41 40 38 37 38 39 39 39 40 40 41 41 41 41 40 40 40 41 41 42 43 44 44 43 42 42 43
9 8 8 9 10 11 11 11 10 10 11 12 12 13 15 16 18 19 19 20 20 22 24 26 27 29 29 29 29 30 32 34 36 38 39 39 39 38 38 37 37 37 38 38 39 39 40 40 40 40 40 40 40 41 41 42 43 43 43 43 42 42 42
9 8 8 9 10 10 11 10 10 11 12 13 14 15 16 17 18 18 17 18 19 21 22 24 25 26 26 27 28 29 31 33 35 36 37 37 37 36 36 35 35 36 36 37 38 39 39 40 39 39 40 40 40 41 41 41 42 42 42 42 42 42 42
8 8 8 9 10 10 11 11 11 12 13 14 15 16 17 17 18 17 17 18 20 20 21 22 24 25 25 26 28 29 31 33 35 36 36 36 36 35 34 34 34 35 36 37 38 39 39 39 39 39 40 40 40 40 40 40 41 41 42 42 42 42 42
8 8 8 8 9 10 11 11 12 12 14 15 16 17 18 18 18 18 18 19 20 20 21 22 24 24 26 27 29 30 32 34 34 35 35 35 34 34 33 34 34 35 36 37 38 38 39 39 40 40 40 40 39 39 39 40 40 41 41 42 42 42 42
7 8 8 8 9 10 11 12 13 14 15 16 17 18 18 19 19 19 20 20 21 21 21 22 24 25 26 28 29 31 32 32 33 33 34 34 33 33 33 34 35 35 36 37 37 38 39 39 40 40 40 39 39 39 39 39 40 40 41 41 41 41 41

ECMWFFLT1_500_spd_084.txt.gz
Wind_Speed
81 82 82 82 82 82 82 82 83 83 84 84 84 85 86 87 88 88 89 89 90 91 93 94 94 93 93 94 94 94 94 94 94 95 95 95 96 96 96 96 97 98 95 93 93 93 92 92 91 89 87 86 86 87 88 89 89 91 92 92 93 93 94
80 80 81 81 81 82 82 83 83 84 84 85 85 86 87 88 89 90 91 91 92 93 94 96 96 95 95 96 97 97 97 97 97 97 97 97 97 98 98 98 99 99 98 95 94 94 93 94 94 91 89 88 88 87 88 89 89 90 91 92 93 93 94
80 80 80 80 81 81 82 82 83 84 84 85 86 86 87 88 90 91 91 92 93 94 96 97 98 98 97 98 100 100 100 100 100 100 100 99 100 100 100 100 101 101 101 98 96 96 95 95 96 93 91 90 90 89 90 90 89 90 91 92 92 93 93
78 78 79 79 80 80 81 82 82 83 84 85 85 86 87 88 89 90 91 92 93 94 96 97 98 98 99 100 102 102 102 102 102 103 103 103 103 103 102 102 103 103 103 101 99 98 96 96 97 95 93 92 92 91 91 91 91 91 92 92 92 93 93
76 77 77 77 78 78 79 80 80 81 82 83 84 85 85 86 87 88 89 90 91 92 93 95 96 96 97 99 101 102 102 102 103 104 105 105 104 104 104 103 104 104 104 103 102 99 97 97 98 97 95 94 94 93 93 93 92 92 92 93 93 93 93
76 77 77 77 78 78 79 80 80 81 81 82 83 84 84 85 86 86 87 88 88 90 91 92 93 93 95 96 98 99 99 100 101 102 103 104 103 102 103 103 103 104 104 104 103 101 98 98 99 98 97 96 96 95 94 94 94 93 93 93 94 93 93
77 78 78 79 79 79 80 80 81 81 82 83 84 84 85 85 86 87 87 87 88 89 89 90 91 92 92 94 95 96 97 98 99 100 101 101 101 101 101 102 102 103 104 105 105 102 100 99 100 100 100 98 98 96 95 94 94 94 93 93 94 94 94
79 79 79 80 80 80 81 82 82 83 84 85 85 86 87 88 88 89 89 89 89 90 91 91 92 93 93 94 96 97 98 98 99 100 101 101 102 102 102 102 102 104 105 106 106 104 102 101 101 102 102 101 100 98 95 94 95 95 94 94 95 95 95
80 80 81 81 82 82 83 84 85 86 87 88 89 90 91 91 92 92 92 92 92 92 93 94 95 95 96 97 99 100 101 101 102 103 103 103 103 105 105 104 104 105 106 107 108 106 104 103 103 104 104 103 101 97 94 94 96 96 96 96 96 96 97
82 83 83 84 84 85 86 87 88 90 91 92 93 94 95 95 95 95 95 95 95 95 96 97 98 98 99 100 102 103 104 104 105 106 106 106 106 107 108 107 107 107 108 108 109 108 106 105 105 105 105 103 101 97 96 96 97 97 96 96 95 94 94
86 86 87 88 88 89 90 90 92 94 95 95 97 98 99 99 98 98 98 98 99 99 99 99 100 101 101 102 104 105 106 106 107 107 107 107 108 109 110 110 109 108 108 109 109 108 107 106 106 106 104 102 100 98 97 97 97 96 94 92 90 88 87
89 89 90 91 92 92 92 93 95 96 97 98 98 99 101 101 101 101 101 101 101 102 102 102 102 102 103 104 105 106 107 107 108 108 108 108 109 109 110 111 110 109 108 108 108 108 107 106 106 104 102 99 98 96 95 93 93 91 87 84 82 79 78
91 91 92 93 93 94 94 94 95 96 97 98 98 99 100 101 102 101 101 101 101 102 102 102 102 102 102 102 103 104 104 104 104 104 105 105 105 105 106 106 106 105 104 103 103 104 103 102 101 99 95 92 91 89 88 86 84 81 77 75 73 72 70
90 90 91 91 92 92 91 91 91 92 93 93 93 94 94 95 95 94 94 94 93 93 93 93 93 93 92 92 92 92 92 93 93 93 93 93 93 93 93 93 93 93 93 92 93 93 93 92 91 87 84 81 80 78 77 75 73 71 70 69 68 68 68
87 86 86 86 86 86 85 84 85 85 86 86 85 85 85 85 84 84 84 83 83 82 81 80 79 79 78 77 77 78 78 79 79 80 80 80 80 80 80 80 79 78 78 79 79 79 78 78 76 74 71 70 69 68 67 66 65 66 66 66 66 66 66
82 81 81 80 80 80 79 77 78 79 78 78 78 78 78 77 76 75 74 73 72 71 69 68 67 66 65 65 65 65 65 66 66 67 68 68 68 68 69 69 69 67 67 68 68 67 66 64 62 61 60 60 60 60 61 61 62 63 63 63 63 63 62
77 76 75 75 74 75 74 73 72 73 72 71 71 71 70 69 67 66 64 62 61 60 58 57 55 55 54 53 52 52 53 54 55 56 57 57 56 57 59 60 60 59 59 59 59 58 56 54 53 53 54 55 56 57 58 59 58 58 58 59 59 58 57
71 70 69 69 69 70 70 68 67 66 65 64 63 62 61 60 58 56 54 51 49 49 48 47 45 45 44 43 43 44 46 47 48 49 49 49 49 50 52 53 53 52 52 52 52 51 50 50 50 51 53 54 54 55 55 55 54 54 55 55 55 54 54
66 64 63 63 63 64 64 63 61 59 58 56 55 54 52 51 50 47 44 41 39 39 39 38 37 37 37 36 37 39 41 41 42 43 43 43 44 45 45 46 46 46 46 47 47 46 46 46 48 49 51 52 52 52 52 52 51 52 52 52 52 52 53
61 59 57 56 57 58 58 57 54 52 51 49 47 45 44 43 42 39 36 33 32 32 32 32 31 31 31 32 33 35 36 36 37 37 38 38 39 39 39 40 40 40 41 42 43 42 42 43 45 46 47 47 47 48 48 48 49 49 49 49 50 51 52
55 53 50 50 52 53 52 51 49 47 45 43 40 38 37 37 35 32 29 26 25 26 26 26 27 26 27 28 29 29 30 31 32 33 33 33 33 33 34 35 36 36 38 39 39 39 40 42 43 44 44 44 45 45 45 46 46 47 47 49 50 50 50
49 47 45 46 48 49 48 46 44 42 39 37 34 32 31 31 29 26 23 20 20 21 22 22 22 22 23 23 23 24 25 27 29 30 30 29 29 30 31 32 33 34 36 36 37 38 39 40 40 41 41 42 43 44 44 44 45 46 47 48 49 49 49
44 43 42 43 44 45 44 42 39 36 33 31 29 27 26 25 23 21 18 16 16 17 18 18 18 18 18 19 20 21 23 26 27 26 25 26 28 29 30 31 31 32 33 34 36 36 37 37 38 38 39 40 41 42 42 43 44 45 47 47 48 49 49
40 40 40 41 41 41 41 38 34 30 28 26 24 22 21 21 19 16 14 12 12 13 14 14 14 14 16 18 20 21 23 24 24 23 23 25 27 28 28 29 30 31 32 33 34 34 35 35 36 37 37 39 40 41 42 42 43 45 46 47 48 48 49
38 38 39 39 38 37 36 34 28 24 23 22 20 19 18 17 15 12 11 9 10 11 11 10 11 12 14 16 18 20 21 21 20 20 22 24 25 26 27 28 29 30 31 31 32 33 33 34 35 36 37 38 40 41 41 41 42 43 44 45 45 46 48
35 36 36 36 35 33 31 29 24 21 20 19 18 16 15 14 11 9 8 8 9 9 9 8 9 11 13 15 16 17 18 18 18 19 20 22 24 25 26 27 28 29 30 30 31 32 32 34 35 36 37 38 40 40 40 39 40 41 41 42 42 44 47
33 33 32 31 29 28 27 25 21 19 18 16 15 14 12 11 9 7 7 8 8 7 7 7 9 11 12 14 15 16 16 17 17 18 19 21 23 24 25 26 28 28 28 29 30 31 32 33 34 34 36 37 37 37 37 37 38 39 39 40 41 44 45
29 30 28 26 23 21 21 21 19 17 16 14 12 11 10 8 6 6 6 7 7 7 7 8 9 11 12 12 13 14 15 16 17 18 19 21 22 23 23 24 26 26 27 28 29 29 30 30 31 33 34 34 34 35 36 37 37 37 38 40 42 43 44
30 29 24 21 18 14 14 16 16 15 14 12 9 8 7 5 4 5 6 6 7 7 8 9 10 11 11 12 12 13 14 16 17 17 19 21 22 23 23 24 25 25 25 26 27 28 28 29 30 31 32 31 32 34 35 35 35 36 38 39 41 42 42
33 30 23 19 16 12 9 10 12 13 12 10 6 4 4 3 4 5 6 6 7 8 8 9 10 11 12 12 13 14 15 16 17 18 20 22 23 24 23 23 25 25 25 25 26 26 26 27 28 29 30 30 31 33 34 34 35 37 38 40 40 41 40
32 29 23 17 14 12 9 7 7 9 10 7 4 3 2 2 4 5 5 5 6 7 7 8 9 10 11 11 12 14 16 17 19 20 21 23 24 24 23 23 24 25 25 25 26 25 25 25 26 27 29 30 32 33 34 34 36 37 38 39 39 39 38
31 26 23 18 13 11 10 7 5 6 7 5 4 3 1 2 4 5 5 5 5 5 5 6 7 8 9 10 11 12 14 16 18 20 22 23 24 24 24 24 24 24 24 25 24 24 24 25 25 27 28 30 31 33 33 34 36 37 37 38 37 36 36
34 27 22 19 14 9 8 7 5 6 7 5 4 3 2 1 3 4 4 4 4 4 4 6 7 8 9 10 10 11 13 14 16 19 21 23 24 24 23 24 24 24 24 24 23 23 24 25 26 27 28 29 30 32 33 34 35 36 37 36 35 35 36
36 29 22 18 14 9 7 6 5 6 8 6 4 4 4 2 2 3 2 3 4 5 6 7 8 9 10 11 11 12 13 13 15 17 19 21 22 23 23 24 23 24 24 23 22 22 23 25 26 26 27 28 29 31 32 34 35 36 36 35 34 35 36
30 27 21 17 14 10 8 6 5 6 7 6 5 5 6 4 2 2 2 3 5 7 8 8 9 10 11 12 12 13 13 14 14 16 18 20 21 22 23 23 23 23 23 23 22 22 23 24 26 26 27 28 29 31 32 34 35 35 34 34 34 35 36
26 23 18 14 13 11 8 7 6 6 7 6 5 5 6 6 4 3 4 5 6 7 8 8 9 10 12 13 14 14 15 16 16 16 17 19 20 21 22 22 23 23 23 23 23 22 22 24 26 27 28 29 30 31 33 33 34 33 33 33 34 35 35

ECMWFFLT1_500_spd_090.txt.gz
Wind_Speed
82 82 82 82 82 82 82 82 81 82 81 81 81 81 81 81 81 81 81 81 81 82 83 84 85 86 88 90 91 92 94 95 96 98 99 100 101 102 102 102 104 105 101 98 96 93 90 91 92 93 93 93 93 93 93 94 94 95 95 96 95 95 95
83 84 84 84 84 84 84 84 83 83 83 82 82 82 82 82 82 81 81 80 80 80 81 81 81 82 83 85 87 88 90 91 93 94 95 96 98 100 101 102 104 105 105 103 101 98 94 93 94 94 94 95 95 95 95 95 96 96 97 97 97 97 97
86 86 86 86 86 86 87 86 86 86 86 85 85 84 84 84 84 83 82 82 81 81 81 81 80 80 81 82 83 84 86 87 89 91 92 93 95 97 98 100 102 104 106 105 104 102 98 96 97 97 96 96 97 97 97 97 97 98 98 98 99 99 99
88 89 89 89 89 89 89 89 89 88 88 88 88 88 87 87 86 86 85 84 83 83 83 82 81 81 81 82 81 81 82 84 85 87 89 91 92 94 95 97 99 101 104 105 105 104 100 98 99 99 98 98 99 98 99 99 99 99 99 100 100 100 101
89 90 90 91 91 91 91 91 91 91 91 91 91 91 90 90 89 89 88 87 87 86 85 85 83 83 83 83 82 81 81 82 84 85 86 88 89 91 92 94 96 98 101 104 104 104 102 100 100 101 99 100 101 101 100 101 101 101 101 101 101 102 102
87 88 88 89 90 91 91 92 92 93 93 93 94 94 93 93 92 92 91 90 90 89 89 88 86 85 85 85 83 83 83 83 84 84 85 85 86 88 90 91 92 94 96 99 102 103 103 101 100 101 100 100 101 102 103 103 102 102 102 102 102 103 103
84 85 86 87 87 88 89 90 90 91 92 93 94 95 95 95 95 95 94 93 92 91 91 90 89 88 88 88 87 86 86 86 86 85 85 85 86 87 88 89 89 91 92 94 97 99 101 101 100 100 100 100 101 102 103 103 103 103 103 103 103 104 104
83 83 84 84 84 85 85 86 87 87 89 90 92 93 95 95 96 97 96 96 95 94 93 92 91 91 90 91 90 90 89 89 89 88 87 87 87 87 88 88 88 88 89 90 92 93 96 98 99 99 99 100 100 102 102 101 102 104 104 104 104 105 105
81 81 81 81 81 81 81 82 82 83 84 86 87 89 91 92 94 95 96 96 96 95 95 94 93 93 92 93 93 92 92 91 91 91 91 90 90 90 89 89 88 88 88 87 88 89 90 93 95 95 97 98 100 101 100 100 101 102 103 104 105 105 106
78 78 77 77 77 77 77 77 78 78 80 81 83 85 86 88 89 91 92 93 94 94 94 95 95 95 95 95 95 94 94 93 93 94 94 93 93 93 92 91 90 90 88 88 87 86 87 89 90 90 92 93 95 97 99 100 101 101 102 103 105 105 105
72 72 72 72 71 71 72 72 73 74 75 77 79 81 82 83 83 85 86 87 88 90 91 92 94 95 95 96 96 96 96 96 96 96 96 96 96 95 95 94 93 92 91 90 89 87 87 87 87 87 87 88 89 91 95 98 100 101 101 102 103 103 103
68 67 67 67 67 67 67 68 69 70 71 72 74 76 78 79 79 79 80 80 82 84 86 88 90 91 93 94 94 95 97 98 98 98 99 99 98 98 97 96 95 94 93 93 92 91 90 88 87 86 86 85 85 87 90 93 96 98 99 100 102 102 101
64 64 64 64 63 62 62 62 62 63 64 66 67 68 70 73 74 73 73 74 76 78 80 82 84 85 87 88 90 91 94 96 98 99 100 100 101 100 99 98 97 96 96 95 95 95 93 91 90 89 87 86 86 87 89 90 91 94 96 97 100 101 99
61 60 59 58 57 56 55 54 55 55 56 58 59 60 62 64 65 65 65 66 68 70 72 74 76 79 81 82 84 86 88 90 94 96 98 99 100 101 100 99 99 98 98 98 98 97 95 94 93 92 89 88 90 91 90 89 89 92 93 93 95 97 97
57 55 53 52 51 50 48 48 49 50 50 52 53 54 55 56 57 57 58 58 59 61 63 65 68 71 73 75 77 79 81 84 88 91 93 95 97 98 99 99 100 100 100 100 101 100 98 96 95 95 93 92 93 93 93 93 93 95 95 94 93 94 94
52 50 48 47 47 46 44 44 46 47 47 48 48 49 50 50 50 51 51 51 51 53 55 57 59 62 64 67 69 71 74 78 82 85 87 88 89 91 93 95 96 97 100 101 102 102 100 99 98 97 96 95 96 96 96 97 99 100 99 97 95 94 93
48 45 44 44 44 44 42 42 43 44 44 43 44 45 46 45 45 45 45 45 46 48 49 50 52 54 57 59 61 63 65 68 73 76 79 79 79 81 83 86 87 90 94 98 100 101 101 101 100 99 98 98 98 99 100 101 103 103 103 101 99 97 95
44 42 41 41 41 41 41 39 39 39 39 40 41 42 43 42 41 41 41 42 43 44 45 45 46 49 51 53 54 54 56 59 62 65 67 68 68 69 71 73 76 80 84 87 90 93 95 97 98 99 100 100 100 101 103 105 105 105 105 104 102 101 99
42 38 38 38 38 39 40 38 36 35 36 36 38 39 40 39 39 38 38 40 40 40 41 42 43 44 46 48 48 47 48 50 52 53 54 55 57 58 59 60 64 69 72 75 78 81 84 87 90 93 96 98 99 101 104 106 106 106 107 106 104 103 102
40 36 35 35 36 37 39 38 35 33 33 34 35 37 38 38 37 37 38 38 37 35 36 38 39 39 40 42 42 42 41 42 43 44 44 45 46 47 47 50 53 57 60 63 66 69 73 76 79 83 86 90 92 95 98 101 104 105 106 106 106 105 105
39 35 32 33 34 36 38 38 35 31 31 32 33 35 36 36 35 36 36 33 31 32 32 32 33 33 34 36 37 37 37 36 36 37 37 37 37 37 39 42 44 46 49 52 55 58 61 65 68 71 75 79 82 85 88 92 95 98 100 102 103 104 105
39 34 31 31 34 37 38 38 35 32 30 31 32 33 34 33 31 32 32 29 27 28 27 25 25 27 28 30 32 33 33 32 32 32 32 31 31 31 34 36 37 39 41 43 45 48 51 53 57 60 64 67 70 73 76 80 84 87 90 92 95 97 99
38 32 28 29 33 37 38 38 36 34 32 30 30 30 30 28 27 27 27 25 24 23 20 18 19 20 21 22 25 27 28 28 27 27 26 26 26 26 28 31 32 33 34 35 36 39 41 43 46 48 51 55 57 60 64 68 71 75 78 81 84 87 89
36 30 27 27 30 35 39 39 37 35 32 29 26 26 25 23 22 22 22 21 19 16 13 13 14 14 16 18 21 23 23 22 22 21 20 20 20 20 23 26 27 27 28 28 29 31 32 34 36 38 41 44 46 49 52 56 59 62 66 69 71 74 77
35 29 26 26 29 33 38 40 38 34 30 27 24 22 20 18 18 19 19 17 13 11 10 10 12 14 16 17 18 19 19 18 17 16 16 15 14 15 19 22 23 23 24 24 24 26 27 29 31 32 35 37 40 42 45 48 51 54 56 59 61 63 64
34 29 25 25 27 31 36 40 39 33 28 25 22 19 17 16 16 17 15 11 8 9 10 13 15 16 15 15 15 15 15 14 13 12 12 12 10 11 16 19 19 20 21 21 22 23 24 26 27 29 31 34 36 38 41 43 46 48 50 52 53 55 56
34 28 24 23 24 28 33 37 37 32 27 24 20 17 16 15 14 15 13 9 8 10 12 14 15 14 13 12 13 13 12 11 11 10 11 10 9 10 14 16 16 17 18 19 20 21 21 22 24 26 27 30 32 35 37 39 41 43 44 45 46 48 50
34 28 24 21 22 24 28 31 33 30 25 22 19 16 15 14 13 13 12 9 9 12 13 14 14 12 10 11 11 11 11 10 9 8 9 8 8 9 12 13 13 14 15 15 16 16 17 18 20 22 23 26 28 30 32 35 36 37 38 40 42 43 44
37 29 24 21 21 23 24 25 27 27 24 21 18 15 13 13 12 12 12 10 9 12 15 14 12 9 8 9 9 9 9 9 8 8 7 8 8 9 10 11 11 11 12 12 13 13 15 16 17 19 20 22 24 26 28 30 32 34 35 37 38 39 39
43 35 29 24 22 23 24 22 21 22 21 20 18 15 13 12 12 13 13 13 12 14 15 13 10 8 6 6 7 7 7 7 8 8 8 8 9 10 11 11 11 11 12 13 14 14 15 16 17 18 19 20 22 24 26 27 29 31 33 34 35 36 37
46 40 34 30 25 24 23 22 19 18 17 16 16 16 14 12 11 11 12 14 15 14 12 11 9 7 5 5 6 6 6 6 8 9 9 9 11 12 12 12 12 12 13 14 15 15 16 16 17 18 19 21 22 24 26 27 29 30 31 32 33 34 35
47 41 36 33 29 25 23 20 17 16 15 14 13 14 14 13 11 10 10 13 14 11 9 9 9 6 5 5 6 6 6 7 8 9 9 10 12 12 13 13 13 14 14 14 15 15 16 16 17 18 19 21 22 24 25 26 28 29 30 31 32 33 34
49 42 37 34 31 27 24 21 17 14 14 13 12 12 12 12 12 10 9 11 12 8 7 9 9 7 5 5 6 6 7 7 7 8 8 9 10 11 12 12 13 14 14 14 15 15 16 16 17 18 19 20 21 23 23 24 26 27 28 30 31 32 33
50 45 39 35 32 28 25 22 19 16 13 12 11 11 11 11 12 11 10 10 10 7 6 8 8 7 6 6 6 6 7 8 8 8 8 9 9 10 11 12 13 14 14 14 15 15 16 17 17 18 19 20 21 22 23 24 25 26 27 29 30 31 32
46 43 39 34 31 28 24 20 18 17 14 12 10 10 10 10 11 11 10 10 9 7 7 8 8 7 7 7 7 7 7 8 8 9 9 10 10 10 11 12 13 14 14 15 15 16 16 17 18 19 20 21 22 23 24 25 27 27 28 29 30 30 31
44 41 38 35 31 28 24 18 15 15 14 12 10 10 10 10 10 10 10 9 9 8 8 8 8 8 8 8 8 8 8 8 9 10 10 11 11 11 11 13 14 14 15 15 15 16 17 17 18 19 20 21 22 24 25 26 27 27 28 29 30 31 32

ECMWFFLT1_500_spd_093.txt.gz
Wind_Speed
84 85 86 87 88 89 90 90 91 91 92 92 92 92 92 92 92 92 92 91 91 90 90 89 89 88 88 88 88 88 88 89 90 91 93 96 97 99 102 104 108 111 111 109 107 103 101 101 99 97 95 94 94 93 92 91 90 90 91 92 92 91 90
83 84 85 86 87 89 90 91 92 93 93 94 94 95 95 95 95 95 94 94 93 93 93 92 91 90 89 90 89 88 88 88 88 88 89 91 92 94 96 98 102 106 109 110 108 104 102 102 101 100 98 97 97 96 95 94 93 92 92 92 93 93 92
79 80 81 82 83 85 86 87 88 89 91 92 93 94 95 96 97 97 97 96 96 95 95 94 93 92 92 92 91 89 89 88 88 88 88 88 89 91 91 93 96 99 104 107 107 104 101 101 101 101 100 100 99 98 98 97 96 95 94 93 93 94 94
76 77 79 80 81 82 83 84 85 86 87 88 90 91 92 93 94 96 96 97 97 97 97 97 95 94 94 94 93 91 90 90 89 89 89 88 89 89 90 90 92 94 97 101 103 102 99 98 99 100 100 101 101 100 100 100 99 98 97 95 94 95 95
75 77 78 79 80 81 82 83 83 84 85 86 87 88 89 90 91 92 93 94 95 96 97 98 97 96 96 95 95 93 92 92 91 91 90 90 89 90 90 90 90 91 93 95 98 98 97 95 95 97 98 99 100 101 101 101 101 101 100 98 97 96 96
74 75 76 77 78 79 79 80 80 81 82 83 84 85 86 87 88 89 89 90 91 92 94 95 96 96 97 97 96 95 95 94 94 93 93 92 91 91 91 91 90 90 91 92 93 94 93 91 91 92 93 95 98 100 101 102 103 102 102 101 100 99 98
71 72 74 75 75 76 76 76 77 77 78 79 81 82 83 83 83 84 85 86 87 88 90 91 92 94 95 96 97 96 96 96 96 96 95 94 94 93 93 92 91 91 91 91 91 91 90 89 87 87 88 89 93 97 100 100 102 103 103 103 103 102 101
70 71 72 73 73 74 74 74 74 74 75 76 77 78 79 78 79 79 79 80 81 82 84 85 87 89 91 92 94 95 96 97 98 98 97 96 96 95 95 94 93 93 92 92 91 90 89 88 86 84 83 84 87 92 95 97 99 102 103 103 104 104 104
70 71 72 72 72 72 72 72 71 71 72 73 73 74 74 74 74 74 74 75 75 76 77 79 81 83 85 87 89 91 93 95 97 98 99 98 98 97 97 96 96 95 94 93 92 91 90 89 87 84 82 81 83 85 88 92 96 99 102 103 104 105 106
70 71 72 72 71 71 70 69 68 68 69 69 70 70 70 70 69 69 69 69 69 70 71 73 75 77 79 81 84 86 89 91 94 96 98 99 99 99 99 98 98 97 96 96 95 93 92 91 88 85 82 80 80 81 83 86 90 94 99 102 104 105 106
71 72 72 72 70 69 68 66 65 65 65 65 66 66 66 66 65 64 64 63 63 64 66 68 70 72 74 76 78 81 83 86 89 92 94 96 98 100 100 100 100 99 98 98 97 95 94 93 91 87 85 81 79 79 80 81 84 88 94 99 102 104 104
71 72 72 71 70 68 66 64 62 62 61 61 61 61 62 62 60 58 57 56 57 58 59 61 64 66 69 71 73 75 78 80 83 86 89 92 95 97 99 101 101 101 100 99 98 97 96 95 93 90 87 83 80 80 80 79 80 83 87 92 97 100 101
72 72 72 71 69 67 64 61 60 59 58 58 57 56 57 57 55 53 51 50 51 52 53 54 56 58 61 63 67 70 73 75 77 80 83 87 90 93 96 98 100 101 101 101 100 99 97 95 94 93 90 86 84 83 81 79 79 80 83 87 91 94 97
72 72 72 71 68 66 62 59 58 57 56 55 54 54 54 54 52 49 48 47 47 48 48 48 49 51 52 54 58 62 65 69 72 75 78 81 85 88 91 94 97 99 101 102 102 101 98 96 95 94 91 89 88 87 84 81 81 82 84 85 86 88 92
71 72 71 70 67 64 60 57 56 55 54 53 52 52 51 50 48 46 45 44 44 44 44 44 45 46 46 47 50 53 56 61 65 69 72 75 78 82 86 89 92 94 97 99 102 102 100 98 97 95 93 92 91 89 87 86 86 86 86 86 84 84 86
71 71 71 69 66 63 58 55 54 54 52 51 50 49 47 45 44 43 42 40 40 41 41 41 41 42 42 43 44 46 49 52 57 61 66 69 72 75 79 83 86 89 92 94 97 100 101 100 99 97 96 94 93 91 90 90 90 90 88 87 86 84 84
70 71 70 67 65 62 57 54 52 51 50 47 46 45 43 42 41 40 39 38 38 38 38 38 39 40 40 40 40 41 43 45 49 53 58 61 65 68 72 75 78 81 85 88 91 95 97 98 99 99 98 97 95 94 93 93 93 91 90 90 89 87 85
69 69 69 66 63 60 57 53 50 49 47 44 41 41 41 41 40 39 37 37 37 36 36 36 38 39 40 39 38 38 39 41 43 47 51 54 57 60 63 65 67 71 76 80 83 87 90 93 95 97 98 98 97 96 96 96 94 91 91 92 92 90 88
68 68 67 64 61 58 55 52 48 47 46 42 38 38 39 40 39 38 37 38 37 35 35 36 37 38 39 38 37 37 37 37 40 44 46 48 51 53 53 53 56 61 66 70 75 79 83 86 88 91 94 96 97 97 98 98 95 93 94 95 93 91 90
67 67 65 62 59 55 53 50 47 46 45 42 37 36 38 39 39 38 37 36 34 33 33 34 35 35 36 36 36 35 34 34 37 40 43 44 45 44 42 43 46 51 56 61 66 70 74 78 80 83 86 90 93 95 97 98 96 95 96 96 94 93 93
66 66 64 60 57 53 51 49 46 46 45 42 38 36 37 39 39 38 37 33 30 30 31 31 32 31 30 30 30 30 30 31 34 37 39 39 37 35 34 36 38 42 47 52 56 59 64 68 71 74 78 81 85 88 92 94 96 96 97 96 95 95 95
65 64 62 58 54 50 48 47 46 46 45 43 39 37 36 36 36 36 34 29 26 26 27 27 26 25 24 23 24 24 26 29 31 34 35 34 32 30 30 31 32 34 38 42 45 48 52 56 59 63 67 70 74 78 83 86 90 93 95 96 95 95 97
64 63 60 55 50 47 45 45 46 46 46 43 40 37 34 33 32 32 30 26 23 23 23 22 20 19 18 19 21 22 23 25 27 29 29 28 28 29 29 27 27 28 31 33 36 38 41 44 47 51 54 57 61 66 71 75 79 84 88 91 93 95 96
62 61 59 54 48 44 42 43 44 46 46 43 40 36 32 29 28 27 25 23 22 21 19 18 16 15 15 17 18 18 18 19 21 22 22 23 24 26 26 24 24 25 26 28 29 30 32 34 37 41 43 46 50 54 59 64 68 73 77 81 85 88 91
61 60 58 53 47 41 39 40 42 45 45 43 40 36 30 27 25 24 22 21 20 19 16 14 13 12 12 13 13 13 13 15 17 19 19 20 21 22 23 22 22 23 24 24 24 24 25 27 31 34 36 39 42 46 50 54 58 62 67 71 75 78 81
60 59 57 53 47 39 36 37 40 43 44 43 39 34 29 25 23 22 20 19 18 16 13 11 10 9 9 10 9 10 13 16 17 18 19 19 20 20 20 20 20 21 22 21 21 20 21 23 26 28 30 33 36 39 42 45 49 53 57 61 65 68 72
59 59 56 52 46 38 33 33 37 40 42 41 36 30 26 24 21 19 18 17 16 13 10 9 10 9 9 9 11 14 16 16 17 17 18 18 18 18 18 17 17 18 18 18 18 18 19 21 22 24 25 27 29 32 34 37 41 45 48 52 56 59 63
57 57 55 52 47 38 31 30 34 38 39 38 33 27 23 22 20 18 17 16 14 12 10 10 11 11 12 14 16 18 18 16 16 16 17 17 16 16 15 15 15 14 14 14 14 15 16 18 19 20 22 23 24 26 28 31 34 37 40 44 47 50 53
57 57 55 52 48 40 31 27 30 34 36 34 30 25 22 20 19 18 17 15 13 12 12 13 13 13 15 17 18 19 18 16 15 15 15 14 14 13 13 12 12 11 11 11 12 12 13 15 16 18 19 20 21 22 24 26 29 32 34 37 40 43 45
58 59 57 54 50 44 35 27 27 31 33 31 28 25 22 20 18 17 16 16 16 15 15 15 15 15 15 16 17 18 17 15 13 13 13 12 12 11 11 11 10 9 9 9 10 11 12 13 15 16 17 18 19 20 22 24 26 28 31 33 35 37 38
58 59 59 57 53 47 39 31 27 30 31 29 26 24 23 20 17 16 16 15 16 16 16 15 15 14 14 13 15 17 16 12 11 11 11 11 11 11 11 10 9 9 8 8 9 10 11 12 13 13 14 15 16 17 20 22 24 25 27 29 30 32 33
57 58 59 59 56 51 44 34 28 28 30 29 25 23 23 20 17 16 16 15 14 16 16 14 13 13 12 11 14 15 13 10 9 9 9 10 10 10 9 9 8 8 9 9 10 11 11 11 11 11 12 12 13 15 17 19 21 23 24 25 27 29 30
56 57 58 58 57 54 49 40 31 27 28 29 25 21 20 20 17 16 17 16 14 15 15 13 12 11 10 11 13 13 11 8 8 8 8 9 8 8 8 8 8 8 9 10 10 10 10 10 10 10 11 11 12 13 15 17 19 20 22 23 25 26 27
54 55 56 57 56 55 51 45 36 29 28 29 27 22 19 18 16 15 16 16 15 14 13 13 12 11 10 11 12 11 9 7 7 7 7 7 6 6 6 6 7 8 9 9 9 10 10 10 10 10 11 11 12 13 14 15 16 17 19 21 23 24 25
51 53 54 55 55 54 51 47 40 32 27 27 27 24 20 18 16 15 14 14 14 13 13 12 12 11 11 12 12 10 8 7 7 7 7 6 5 5 5 5 6 7 7 8 8 8 9 9 9 10 10 11 12 13 14 15 16 16 17 18 20 21 22
50 51 52 53 54 53 51 48 43 35 27 24 25 24 22 19 17 15 14 13 13 13 13 12 12 11 11 12 11 9 7 7 8 8 7 6 6 6 6 6 6 6 7 7 7 7 8 8 9 9 10 11 11 12 13 14 15 15 16 17 18 19 21

ECMWFFLT1_500_spd_096.txt.gz
Wind_Speed
67 67 66 67 67 68 69 71 72 74 75 77 78 80 82 84 86 88 90 91 93 94 96 97 98 98 98 99 99 99 98 97 96 96 95 94 93 93 94 96 99 103 106 108 109 109 109 107 107 108 108 107 106 105 103 101 100 98 96 94 92 90 89
61 61 61 62 63 64 66 68 70 71 73 74 76 77 78 80 81 83 84 86 87 89 91 93 95 96 96 98 100 100 100 100 100 99 98 97 96 95 94 95 96 97 99 101 102 104 106 106 105 105 106 107 107 107 105 104 102 101 100 98 96 93 91
56 57 58 60 61 63 65 67 68 70 71 72 73 74 75 76 77 78 79 80 81 83 85 87 89 90 92 94 96 97 98 99 100 101 101 100 99 98 96 96 96 96 96 96 96 97 99 102 102 102 103 104 105 106 107 106 104 103 102 101 99 97 95
54 56 57 60 62 64 65 67 68 68 69 71 72 72 72 73 74 75 75 76 77 78 80 82 84 85 87 90 92 93 94 96 97 99 100 101 100 100 99 98 98 97 96 95 94 92 93 96 98 98 99 101 102 103 105 106 105 104 104 103 102 101 99
53 55 57 60 62 64 66 67 68 68 69 70 70 70 70 71 71 72 72 73 74 75 76 78 79 80 82 84 86 88 90 92 94 95 97 98 99 100 100 100 99 99 98 97 95 92 90 91 93 93 94 96 98 99 101 104 105 104 104 104 104 103 102
54 56 58 60 63 65 66 67 68 69 70 70 70 70 70 70 70 70 70 71 71 72 73 74 75 76 78 80 81 83 85 87 90 92 94 95 96 97 99 100 100 100 100 99 97 93 91 90 90 89 89 91 94 96 97 99 102 103 103 104 105 104 103
54 56 58 61 63 65 67 68 69 70 70 70 70 70 70 69 69 69 69 69 68 68 68 68 69 70 72 74 76 78 80 83 85 88 90 92 93 94 96 97 99 100 101 100 99 96 93 91 90 89 87 87 89 92 93 94 96 98 100 102 104 104 104
54 56 59 62 64 66 68 69 70 71 71 71 71 70 70 70 69 69 67 66 64 63 62 63 63 65 66 68 70 73 75 78 80 83 85 87 89 91 93 94 96 97 99 100 100 98 96 94 92 90 88 87 88 89 89 90 92 94 96 98 101 103 104
55 57 59 62 64 66 68 70 71 72 73 72 72 71 71 70 70 68 66 62 59 57 57 57 58 59 61 64 66 67 70 72 75 78 80 81 84 87 89 91 93 94 96 98 99 99 98 96 94 92 90 88 88 88 87 88 90 90 92 94 97 100 102
55 57 60 62 64 67 69 71 72 73 73 73 73 73 72 71 69 67 62 57 54 52 52 52 54 55 56 58 60 62 64 67 69 72 74 75 78 81 84 87 89 91 92 94 96 97 98 98 96 94 92 91 90 89 88 88 88 88 89 91 93 95 97
55 57 60 62 65 67 69 71 73 73 73 73 74 74 74 72 69 64 58 54 51 49 48 48 48 49 50 52 54 56 58 61 63 66 69 71 73 75 79 82 84 86 88 90 92 94 95 98 97 96 94 93 91 91 90 89 88 88 87 88 90 90 91
55 58 60 63 65 67 69 70 72 73 73 73 73 73 74 72 67 60 55 51 48 46 45 44 43 44 45 46 48 50 52 54 56 59 63 65 68 70 73 76 79 81 84 86 89 91 92 94 96 96 96 94 93 92 92 91 90 89 87 87 87 87 87
55 58 61 63 65 67 68 70 71 72 72 72 72 72 72 69 63 56 50 47 45 43 42 41 40 40 40 41 43 45 47 49 51 53 56 59 62 65 67 70 73 76 79 82 85 87 89 90 92 94 95 95 95 95 93 92 91 90 89 88 86 85 85
56 58 61 63 65 66 67 69 71 71 71 71 71 70 69 65 58 51 46 43 42 41 41 40 39 37 36 36 38 39 42 45 47 49 51 54 57 59 62 65 68 71 74 77 81 83 85 85 88 91 92 93 95 96 94 92 91 91 91 90 88 86 85
56 58 61 63 65 65 66 68 70 71 70 70 69 68 66 60 53 47 43 41 41 41 41 40 39 37 35 35 35 36 39 41 43 45 48 50 52 54 57 60 63 65 68 72 75 79 80 81 83 86 88 90 92 95 94 93 94 94 94 92 90 88 86
56 58 60 62 64 64 65 66 68 70 70 69 68 67 62 55 48 44 41 40 40 42 42 41 40 38 36 34 34 35 37 39 40 43 44 46 47 49 52 55 57 59 62 65 69 73 75 77 79 81 83 85 88 92 93 94 96 96 95 93 91 89 88
56 58 60 61 63 63 63 64 66 68 68 67 66 64 59 51 45 41 39 39 40 42 42 41 41 40 38 36 35 35 36 37 39 41 41 42 43 45 48 50 50 52 55 58 62 66 69 72 75 77 79 81 84 87 90 94 96 96 95 94 92 91 89
55 57 59 60 61 62 63 63 65 67 67 66 65 62 55 48 42 39 38 38 39 41 42 41 40 41 40 38 36 36 35 36 38 39 39 40 41 42 44 44 44 46 49 52 56 60 64 67 70 73 75 78 80 83 86 91 93 94 95 96 94 91 89
55 56 58 59 59 61 62 63 64 65 66 65 63 60 53 46 41 38 37 37 38 40 40 39 38 39 39 38 36 35 34 34 36 37 38 39 40 41 39 38 39 43 45 48 51 55 58 62 66 69 72 75 77 78 81 85 88 90 93 96 95 91 89
55 55 56 57 58 59 62 63 64 64 64 64 62 58 52 46 42 39 37 37 37 36 35 35 35 35 36 36 35 33 32 32 33 34 36 36 37 36 35 36 39 41 42 44 47 49 53 56 60 63 66 69 72 73 75 78 81 84 88 92 93 92 91
54 54 54 55 57 58 60 62 64 63 63 62 60 56 51 46 42 40 38 36 34 32 31 30 31 32 32 32 30 30 29 28 28 30 31 32 32 32 33 36 37 37 37 39 41 44 47 50 53 56 59 62 65 66 68 71 74 78 82 86 89 91 92
53 53 52 53 55 57 58 60 62 62 61 60 58 54 50 46 43 41 38 33 29 27 26 26 27 27 27 27 26 24 24 23 24 25 27 28 30 32 33 33 32 32 32 32 34 37 39 42 45 48 51 54 56 58 60 63 67 71 75 79 84 88 92
52 51 51 52 53 55 56 58 60 61 60 58 56 52 49 46 44 42 37 31 25 22 23 24 24 23 22 22 21 19 19 20 21 23 25 28 31 32 32 31 30 29 28 27 28 30 32 34 37 40 43 45 47 49 52 55 58 63 67 72 77 83 87
51 50 50 50 51 53 54 55 58 59 59 57 54 50 48 46 44 41 37 30 23 20 21 21 20 19 18 17 17 18 20 21 23 25 27 29 30 30 30 29 29 28 26 25 24 24 26 29 31 33 35 37 39 42 45 48 51 54 59 64 70 75 81
50 50 49 49 50 51 52 53 55 57 57 55 52 49 46 45 43 40 36 29 23 21 20 19 17 15 15 16 18 20 20 21 22 23 24 25 25 24 25 25 25 25 24 23 21 21 22 25 27 28 29 31 34 37 39 41 43 45 50 55 60 66 72
49 49 48 48 49 50 51 51 52 54 54 53 50 47 45 43 41 38 34 28 23 21 19 17 15 14 14 16 18 19 17 16 16 17 18 19 19 20 21 22 22 22 21 20 20 19 21 24 26 27 28 29 31 32 33 34 37 39 43 47 52 57 62
49 49 48 48 48 49 49 49 50 51 51 50 47 45 43 41 39 36 32 27 24 21 18 15 14 13 14 15 16 15 13 11 11 13 15 18 20 20 21 21 20 19 19 19 19 19 21 24 25 25 26 27 27 28 28 30 32 34 37 41 45 48 53
49 49 48 48 48 48 48 48 49 49 49 47 44 42 40 39 36 33 29 27 25 21 17 15 14 13 13 13 12 11 9 10 12 14 16 18 20 21 20 19 19 18 17 18 19 19 21 22 23 22 22 22 23 24 25 27 29 31 34 37 40 42 46
48 48 48 47 47 48 48 48 48 48 48 46 43 41 39 37 33 28 25 25 24 22 18 16 14 13 12 12 11 10 11 13 16 17 18 18 19 20 19 17 16 16 15 17 18 19 19 19 19 19 19 19 19 21 22 24 26 28 30 33 36 38 40
49 49 49 49 49 49 50 49 48 48 48 46 44 41 39 37 33 27 23 22 22 21 19 17 15 14 13 12 12 12 13 15 16 18 20 20 19 18 17 15 14 14 14 15 17 16 15 15 15 15 16 16 17 18 19 20 22 24 27 29 31 33 35
51 51 51 51 51 50 51 50 49 48 47 46 44 41 39 37 33 28 24 22 21 19 19 17 16 15 14 14 13 12 13 15 16 17 19 19 17 16 15 14 13 12 13 14 14 14 13 12 12 13 13 14 14 15 16 18 20 21 23 24 25 27 30
51 50 51 51 52 52 52 51 50 49 47 46 43 40 38 37 34 28 24 23 21 19 18 18 17 16 15 14 13 12 12 13 15 17 18 17 16 14 13 12 11 11 12 13 13 12 11 10 10 10 11 11 11 12 13 15 17 18 19 20 21 23 26
50 50 50 50 51 52 52 52 52 50 49 47 44 41 38 36 34 29 22 21 21 20 18 17 17 16 15 13 13 13 13 13 14 16 17 16 14 12 11 9 9 9 10 11 11 10 9 9 8 9 9 9 9 10 11 13 14 15 15 16 17 19 22
48 49 49 49 49 50 51 52 52 51 50 48 45 43 40 37 35 31 23 19 19 20 19 18 17 16 15 14 13 13 13 13 14 15 16 14 12 10 8 7 7 7 7 8 8 8 7 7 7 7 8 8 8 8 9 11 12 12 12 13 15 17 19
46 47 47 47 47 48 49 50 50 50 50 49 46 43 40 37 35 33 28 21 18 19 19 19 18 16 15 14 13 13 12 12 13 15 15 13 10 9 7 5 5 4 4 4 5 5 5 5 6 6 6 6 6 6 7 9 10 9 9 10 12 15 17
44 45 46 46 46 46 47 48 49 50 49 49 47 44 40 36 34 32 31 26 20 18 19 19 19 18 16 14 13 12 12 12 13 14 14 12 9 8 6 5 4 3 3 2 2 2 3 3 4 4 4 4 4 5 6 7 8 8 8 8 10 12 14

ECMWFFLT1_500_spd_102.txt.gz
Wind_Speed
66 64 63 61 59 58 57 57 56 56 56 55 55 56 56 56 57 57 57 58 58 58 59 59 59 60 61 63 64 65 68 70 72 75 77 79 81 82 84 87 90 94 94 93 93 95 97 99 100 100 99 99 100 102 105 107 109 112 116 118 119 120 121
63 61 60 58 56 55 55 54 54 54 54 53 53 53 53 54 54 54 54 54 54 54 55 56 57 58 60 62 64 66 68 71 73 75 76 77 79 80 81 83 85 87 87 85 84 86 91 96 98 100 100 100 99 100 102 104 105 107 110 113 116 118 119
60 58 56 54 53 52 52 51 51 51 51 50 50 50 50 50 50 50 50 50 51 52 54 55 56 58 60 63 65 67 70 73 74 76 77 76 77 78 78 80 82 82 81 79 76 76 80 86 90 93 96 99 100 100 101 102 103 104 105 108 111 114 115
56 54 52 50 50 49 49 48 48 48 47 47 47 47 46 46 47 47 47 48 50 52 54 55 57 59 62 65 67 70 72 74 75 75 76 76 76 76 76 77 79 79 79 77 73 71 73 78 82 83 87 92 95 97 101 102 102 103 103 104 106 109 111
52 50 48 47 46 46 46 45 45 44 44 43 43 43 43 44 45 46 47 49 51 53 54 56 58 61 64 67 69 71 73 73 74 74 74 74 74 74 75 75 76 77 77 76 73 70 71 75 78 79 80 84 88 90 95 100 102 103 103 103 104 105 106
48 46 45 44 44 43 43 42 41 41 40 40 40 41 41 43 44 46 48 50 52 54 56 58 60 63 66 68 70 70 71 72 72 73 72 72 72 72 73 73 74 74 75 75 74 73 72 75 79 80 79 81 85 87 89 93 97 101 103 104 104 104 104
45 44 42 41 41 40 39 39 38 37 37 37 38 39 41 43 45 47 49 51 53 55 57 59 62 64 66 68 68 69 70 71 71 72 71 71 71 71 71 72 72 73 74 75 75 75 75 76 80 83 81 82 85 86 86 88 92 96 100 103 105 105 104
43 41 40 39 37 36 35 34 34 34 35 36 38 40 42 45 47 49 50 52 54 55 57 60 62 64 65 66 67 69 70 71 71 71 70 69 70 71 71 72 72 73 74 75 75 76 76 78 81 83 82 83 85 86 86 87 90 92 94 98 103 105 105
40 39 37 36 35 33 33 32 32 33 35 37 39 42 45 46 48 50 51 53 54 55 57 59 61 62 63 65 67 69 70 71 72 71 70 69 70 71 72 72 73 73 73 74 74 74 74 76 78 79 80 80 82 85 86 88 90 90 90 94 98 102 105
39 37 35 34 33 32 32 32 33 35 37 39 42 44 46 47 49 51 51 52 53 54 55 57 59 61 62 64 66 68 70 71 71 71 70 70 70 71 71 71 71 70 70 69 69 68 69 71 72 73 74 75 77 81 84 86 88 89 90 92 94 96 100
39 37 36 34 33 32 32 33 34 37 39 41 44 46 47 48 49 50 50 50 51 53 55 57 58 60 62 64 66 68 69 69 70 70 69 69 69 69 68 67 66 65 65 64 63 61 61 64 64 64 66 69 71 74 78 81 85 87 89 91 92 91 93
39 38 36 35 34 33 33 34 36 39 40 42 46 48 49 49 48 48 48 49 51 53 55 57 58 60 61 63 66 67 68 68 68 68 68 67 65 64 63 62 62 62 61 60 59 57 55 56 56 56 58 61 63 67 71 76 80 83 85 88 90 89 89
39 38 37 36 35 34 34 35 38 40 42 44 46 48 49 48 47 47 48 50 52 54 56 57 58 59 60 62 64 66 66 67 66 65 64 62 60 58 58 58 59 59 59 58 56 54 51 50 50 51 50 52 57 62 66 69 72 76 79 83 87 88 88
39 38 38 37 36 35 35 36 40 42 43 45 47 48 48 48 47 48 49 51 52 54 56 57 57 58 59 61 63 65 65 65 63 61 58 56 55 54 54 55 55 56 56 56 55 52 48 45 46 46 44 45 51 56 60 63 65 68 73 78 82 86 87
39 38 38 38 37 36 36 38 41 43 44 45 47 48 48 47 47 48 49 51 52 54 55 55 56 57 58 60 62 62 62 60 58 56 54 53 52 51 52 52 52 52 53 54 54 52 47 43 42 42 40 40 45 50 54 57 59 62 67 72 77 81 84
39 38 38 38 38 37 37 39 42 44 45 46 48 48 47 47 47 48 49 51 52 53 54 54 55 56 57 59 59 58 58 57 56 53 50 48 47 47 47 47 47 48 49 49 50 49 47 44 42 40 38 37 40 44 49 53 57 59 63 68 73 76 79
39 38 38 38 38 38 38 40 43 45 45 46 48 48 47 47 47 48 49 50 51 52 52 53 54 54 56 56 55 54 54 55 54 50 45 43 41 41 42 42 41 42 43 43 44 44 44 43 42 40 38 37 37 39 43 50 55 57 59 64 69 72 74
38 38 38 38 39 39 39 40 43 45 46 47 48 48 47 47 47 47 49 50 50 50 51 51 52 53 53 53 51 51 52 52 49 45 41 40 39 37 36 35 36 37 37 37 39 39 40 40 40 41 40 39 37 37 40 46 51 53 55 59 63 66 68
38 37 37 38 39 39 40 40 42 45 46 47 48 48 47 46 46 47 48 49 48 48 49 50 50 50 51 50 49 49 50 48 44 40 39 38 37 34 32 32 33 33 33 33 34 36 37 38 39 40 40 39 38 37 39 43 47 49 52 55 58 60 63
38 37 37 38 39 40 40 40 41 44 46 47 48 48 47 47 47 47 48 48 48 47 48 48 48 47 47 47 47 48 47 43 40 38 37 35 33 32 31 30 28 28 28 29 30 32 35 36 37 38 39 38 37 36 37 40 43 45 47 51 54 56 60
38 37 37 38 40 40 40 40 41 43 45 46 47 48 48 47 47 48 49 48 47 46 47 47 46 45 45 44 44 45 44 41 38 37 34 32 31 31 29 26 23 23 24 25 25 27 29 31 32 34 36 37 37 36 35 37 39 40 42 46 49 52 57
38 37 37 38 39 40 40 40 41 43 44 45 47 48 48 48 47 48 49 48 47 46 46 46 45 44 43 41 40 41 41 40 37 35 33 31 30 29 27 24 21 20 20 20 20 21 22 23 26 29 31 33 35 36 37 37 37 37 39 42 44 46 51
38 37 37 37 39 39 39 40 41 42 43 45 46 47 47 48 48 49 50 49 47 46 46 46 45 43 41 38 36 37 39 39 36 34 32 31 29 27 26 24 21 19 18 17 18 18 18 20 24 26 28 30 33 35 37 38 36 35 37 39 40 41 45
38 37 37 37 38 39 39 39 40 42 43 44 45 45 46 47 48 49 50 50 48 47 47 47 45 42 39 35 33 34 37 37 36 33 32 30 29 27 26 24 22 20 18 17 18 19 21 23 26 28 29 30 32 34 35 37 36 35 36 37 38 38 40
37 37 37 37 36 37 38 38 39 41 42 43 44 44 44 45 47 48 50 50 49 48 48 48 47 43 39 34 31 31 34 35 35 34 32 31 29 28 27 25 24 22 21 21 23 25 27 28 29 31 31 32 33 33 34 35 36 36 35 36 36 35 37
38 37 37 36 36 36 36 37 38 39 41 42 42 43 43 44 45 47 48 49 48 47 48 49 48 45 41 36 31 28 30 32 33 33 32 32 30 29 27 26 25 24 24 24 26 28 28 28 28 29 30 31 31 31 33 34 35 34 33 33 34 33 32
38 38 37 35 35 35 35 36 37 38 40 41 41 41 42 42 43 45 46 46 46 45 46 47 47 46 44 40 33 27 26 28 29 30 31 31 30 29 27 27 26 25 24 26 28 27 25 24 24 24 26 27 27 28 30 31 31 30 29 31 32 30 28
38 38 37 35 34 34 34 35 36 37 39 40 40 39 39 40 40 42 42 42 41 42 43 44 44 43 43 40 36 31 27 26 27 28 29 29 29 28 26 25 24 23 24 26 25 23 21 20 19 19 21 22 23 24 26 27 26 25 24 26 28 27 25
38 37 37 35 34 34 34 33 34 36 37 38 38 38 37 37 38 40 40 39 39 39 40 41 41 41 40 39 37 33 29 27 26 26 27 27 27 26 25 24 22 22 23 22 20 18 17 17 17 17 18 19 20 21 22 23 22 21 21 24 25 24 24
38 37 36 35 34 33 33 33 33 34 36 38 38 37 37 37 39 40 40 39 39 39 39 40 40 40 40 38 36 34 30 27 26 26 26 26 25 24 23 22 21 20 20 18 16 15 15 15 16 16 17 17 18 19 20 20 20 21 22 23 24 23 22
38 36 36 35 34 33 33 33 33 34 36 37 37 37 37 38 39 41 40 39 39 39 39 39 39 39 39 38 36 34 32 28 26 26 26 25 25 24 22 20 19 19 17 15 14 14 14 15 15 15 16 16 16 16 17 18 19 20 21 21 22 23 23
37 36 35 35 34 33 33 34 34 35 36 37 37 38 38 38 39 41 40 39 39 39 38 38 38 38 38 38 36 34 32 30 26 25 26 26 25 25 23 20 18 17 16 14 13 13 14 14 15 15 15 14 13 13 14 16 17 18 19 20 20 21 21
37 35 34 34 34 34 34 34 35 35 36 37 37 38 38 38 40 41 40 39 38 38 38 38 38 38 38 38 37 35 32 30 28 25 25 25 25 24 23 21 18 16 15 14 13 13 14 15 15 15 14 13 11 11 12 15 17 18 18 18 18 18 18
39 36 34 34 34 34 35 35 36 36 37 38 38 38 38 39 40 41 41 39 38 37 37 37 38 38 38 38 38 36 33 31 29 26 25 25 25 24 23 21 18 16 15 14 13 13 14 14 14 14 13 11 10 9 11 15 18 18 16 16 16 16 17
38 37 35 33 33 33 34 35 36 37 38 38 39 40 39 39 40 41 41 41 40 38 37 37 37 37 38 37 37 37 35 32 29 27 25 24 24 24 22 20 18 16 15 13 13 13 13 14 14 14 13 12 10 9 11 15 18 16 14 14 15 16 17
34 34 34 33 32 32 33 35 36 37 38 39 40 40 40 40 41 41 41 41 40 39 38 38 37 36 37 37 37 37 36 33 30 27 25 24 24 24 22 20 17 16 14 13 12 12 12 13 13 13 13 12 10 10 11 14 16 15 13 13 14 15 16

ECMWFFLT1_500_spd_108.txt.gz
Wind_Speed
81 82 83 84 84 84 85 85 85 85 86 87 87 86 84 81 76 72 67 62 60 59 57 54 52 50 49 48 47 46 46 46 47 48 48 50 51 52 54 55 56 56 52 48 51 56 59 62 65 67 69 72 75 79 83 86 89 92 94 95 97 98 98
81 83 84 84 84 85 85 85 85 86 86 87 87 85 82 78 74 70 65 60 58 56 54 51 49 47 46 45 43 42 42 42 43 44 45 46 48 49 50 52 53 53 51 46 46 50 55 57 59 61 63 65 67 71 75 79 83 87 90 93 95 97 99
82 83 84 84 85 85 85 86 86 86 87 87 86 83 80 76 71 67 62 58 56 54 52 49 46 45 44 42 40 38 38 38 39 40 41 42 44 45 46 49 50 50 49 46 44 47 52 55 55 57 60 61 62 66 69 72 75 80 84 87 90 94 97
83 84 84 84 85 85 86 86 86 87 87 86 85 81 78 73 69 65 60 56 54 52 49 47 44 43 42 40 38 36 36 36 37 38 40 41 43 45 46 49 51 51 51 49 46 47 52 56 56 56 60 62 63 64 68 70 71 74 77 81 84 88 91
83 84 84 84 85 86 86 87 87 87 87 86 84 80 75 71 67 63 59 55 52 50 47 45 43 41 40 39 37 36 36 37 39 40 42 43 45 47 49 51 53 54 54 52 50 49 53 56 58 58 60 63 65 66 68 70 72 74 76 79 81 83 85
83 84 84 85 86 87 87 87 87 88 87 85 82 78 73 68 64 61 57 53 50 48 46 44 42 40 40 38 37 37 38 39 41 42 44 45 47 49 52 53 54 55 56 55 54 54 55 58 60 60 60 63 67 68 70 71 73 75 76 79 81 82 83
83 84 84 85 86 87 87 88 88 88 86 84 80 76 71 66 62 59 55 52 49 47 45 43 41 40 39 39 39 39 40 41 43 44 45 47 49 52 53 54 55 56 57 57 57 57 59 61 63 63 63 65 69 71 72 74 76 77 77 79 81 81 82
83 84 85 86 87 87 88 88 88 87 85 82 78 74 69 64 61 56 53 50 48 46 44 42 41 40 40 40 41 41 42 43 44 45 47 48 51 53 54 54 55 57 58 59 59 60 61 64 65 65 65 67 70 73 75 77 79 79 78 79 81 81 81
84 84 85 86 87 87 88 88 88 86 84 80 76 72 67 62 59 55 51 49 47 44 43 41 40 40 40 41 42 43 43 44 45 47 48 50 52 53 54 55 56 57 58 59 60 60 62 65 66 66 67 68 71 74 76 76 78 79 79 80 80 79 79
84 85 86 87 87 88 88 88 87 85 82 78 74 70 65 60 57 53 50 48 46 43 41 40 40 40 41 42 42 43 44 45 47 48 49 50 52 54 55 55 56 57 58 59 60 60 63 66 67 67 68 68 69 72 74 74 75 76 77 78 78 76 77
85 86 87 87 88 88 88 88 86 83 79 75 72 68 64 59 55 51 48 46 45 42 40 40 40 40 42 42 42 44 45 46 48 49 50 51 53 54 54 55 55 56 57 59 60 60 63 66 67 66 65 65 65 67 69 71 72 72 72 73 75 74 73
85 87 87 88 88 89 88 87 83 80 76 72 69 66 64 60 54 49 45 44 43 41 40 39 39 40 41 41 43 44 46 47 49 50 51 52 54 54 54 55 56 56 57 58 59 60 61 63 63 60 58 58 60 63 65 66 67 67 67 69 71 72 71
86 87 88 89 89 89 88 85 81 77 73 69 66 64 62 59 53 48 44 42 41 40 39 39 39 40 40 41 43 44 46 47 49 50 52 53 53 53 53 54 56 56 57 59 60 60 59 58 58 56 54 54 57 59 60 62 62 62 64 65 66 67 67
87 88 89 89 89 89 86 82 78 74 70 66 63 61 60 57 52 47 44 42 41 40 39 39 39 39 40 41 43 44 46 48 49 51 52 52 51 52 52 53 54 55 57 59 61 61 58 54 54 54 51 51 53 54 54 55 56 57 59 60 60 60 62
88 88 89 90 89 88 84 79 74 71 67 64 61 59 57 54 50 46 43 41 41 40 39 38 38 39 40 41 42 44 46 48 50 51 50 49 49 50 51 52 52 53 55 58 60 60 56 51 50 51 50 48 49 49 50 51 52 52 53 54 54 54 55
88 89 89 89 88 85 80 75 71 68 64 61 59 57 55 51 47 45 43 41 41 40 39 38 39 39 40 41 42 44 47 49 50 49 48 47 48 49 50 50 50 52 54 56 57 56 52 48 49 49 49 47 46 46 47 48 48 47 49 50 50 50 50
88 89 89 88 86 82 77 71 67 64 61 58 56 54 52 49 46 44 42 41 40 40 39 39 39 39 40 41 43 45 47 49 49 48 47 46 47 48 48 47 49 51 53 54 56 53 49 48 49 49 48 46 45 45 46 46 44 44 46 49 49 48 47
89 89 89 86 83 78 73 67 63 61 58 55 53 52 50 48 45 43 41 40 40 40 39 39 38 39 41 42 43 45 46 48 49 48 46 46 46 46 45 46 47 49 49 51 53 52 47 46 48 48 47 45 44 44 45 45 43 42 45 47 47 46 45
89 89 87 83 78 73 69 64 59 57 55 52 50 49 49 47 44 42 41 40 39 39 39 38 38 39 41 42 43 44 46 47 48 47 46 46 46 45 44 45 46 46 47 48 50 48 43 42 45 47 46 45 43 43 44 44 43 42 43 43 42 42 42
89 88 84 78 73 69 65 61 56 53 51 48 47 47 47 46 43 42 41 39 38 38 37 37 38 39 42 43 43 44 45 46 47 46 46 46 45 45 45 44 45 45 47 47 48 45 40 38 41 44 45 45 44 43 42 43 42 42 41 40 38 37 37
89 85 79 73 69 64 61 58 54 50 47 46 45 45 46 45 43 42 41 38 37 36 36 36 37 39 41 43 43 44 45 45 45 45 46 45 45 45 45 43 44 45 46 47 47 45 39 36 37 41 43 44 44 43 43 42 42 41 40 39 36 34 33
87 82 75 68 64 61 57 55 51 47 44 44 44 44 44 44 43 42 40 38 36 35 35 36 37 39 41 42 42 43 44 44 43 44 46 45 45 45 44 43 44 45 46 46 46 45 41 36 36 38 40 42 42 42 43 43 42 40 39 37 36 34 31
84 78 70 64 60 57 54 52 49 46 43 42 43 43 43 44 43 41 39 37 35 35 35 36 37 38 39 41 42 43 43 42 42 43 45 45 44 44 44 44 44 45 46 46 46 46 43 38 36 37 38 40 41 41 42 42 42 40 38 36 35 33 30
79 73 66 60 56 53 51 49 46 44 43 42 42 42 42 42 42 41 38 36 35 35 35 35 36 37 39 40 42 42 41 40 41 43 44 43 43 43 44 44 44 44 45 45 45 46 45 41 37 36 37 38 39 40 40 41 41 40 38 36 35 33 29
75 69 63 58 53 50 48 46 44 42 42 42 42 42 42 41 41 40 38 35 34 35 35 35 36 37 39 40 41 41 40 40 41 43 42 42 42 42 42 43 43 43 44 44 44 45 45 43 40 37 36 37 38 39 39 39 39 38 37 36 34 32 30
71 65 60 55 51 47 44 43 42 41 42 42 42 42 42 41 40 39 37 35 34 34 35 36 36 38 39 40 41 40 39 40 41 42 42 41 41 40 41 42 42 43 43 43 43 44 44 44 42 38 37 37 37 37 38 38 38 37 37 35 34 32 31
67 62 58 53 48 45 42 40 40 40 41 42 42 42 42 41 39 38 36 33 33 34 35 36 37 38 39 40 40 39 39 40 41 42 42 41 41 41 41 41 41 41 41 41 42 42 43 43 42 40 38 37 38 37 38 38 37 36 36 35 34 33 33
64 60 56 51 46 43 40 38 39 40 40 41 42 42 42 41 40 38 36 33 33 33 34 36 37 38 39 40 40 39 40 41 42 42 42 43 43 43 42 42 42 42 42 42 42 42 42 42 41 39 38 38 38 38 38 38 37 36 36 35 34 34 34
62 58 54 49 45 42 39 37 38 39 40 41 42 42 41 40 40 39 36 35 35 35 35 36 37 38 39 40 40 40 40 41 42 43 43 43 44 44 44 44 43 43 43 43 43 43 42 41 40 38 37 37 37 37 38 38 37 36 35 35 33 33 34
60 56 52 46 41 39 38 36 36 37 38 40 41 41 40 39 38 37 33 32 35 37 37 37 38 39 40 41 41 41 42 42 43 43 43 44 44 44 45 44 44 43 43 43 43 43 42 42 40 38 37 36 36 36 37 37 37 36 35 33 33 33 33
57 55 52 46 41 38 36 34 34 34 36 38 39 40 39 38 37 35 31 29 33 36 36 37 38 39 40 41 41 42 42 42 43 43 43 43 44 44 44 44 44 43 43 43 43 42 42 41 40 37 36 36 35 36 36 37 37 36 34 32 32 32 32
55 53 51 47 44 41 38 36 34 34 35 36 37 37 37 35 35 35 31 28 30 34 35 35 37 37 38 40 40 41 42 42 43 43 43 43 43 43 44 44 43 43 43 43 43 42 42 41 40 37 35 35 35 35 36 36 36 35 34 32 31 30 29
53 52 49 47 45 43 41 39 37 36 35 35 35 35 34 32 32 33 32 29 30 32 33 35 36 36 38 39 39 40 41 42 42 42 42 42 43 43 43 43 43 43 43 43 42 42 41 41 40 37 34 33 34 35 35 35 34 34 33 31 30 28 26
50 50 49 46 45 44 42 41 39 38 37 36 35 34 32 30 29 31 32 30 30 32 33 34 35 36 37 38 38 39 40 41 42 42 42 42 43 43 43 43 43 42 42 42 42 41 41 41 40 37 33 32 33 34 34 33 33 32 31 30 27 25 24
46 47 47 46 45 43 42 40 40 39 38 37 35 34 31 29 28 30 31 31 31 32 32 33 34 36 37 38 38 39 40 41 42 42 42 42 43 43 43 44 43 43 43 42 42 41 41 41 40 37 33 31 32 33 33 32 31 30 29 27 25 23 22
42 43 43 44 44 42 40 39 38 38 37 36 35 34 32 30 29 29 30 31 32 33 33 33 35 36 37 38 39 40 40 41 42 43 43 43 43 43 44 43 43 43 43 43 42 42 41 40 39 37 33 30 31 32 32 31 29 28 27 25 23 20 20